Weather History for KCEW - November, 2013

Change the Weather History Date:

Saturday, November 16, 2013

  Actual Average Record
Temperature  
Mean Temperature 66 °F -  
Max Temperature 73 °F 71 °F 84 °F (1993)
Min Temperature 60 °F 45 °F 29 °F (1975)
Cooling Degree Days 2    
Growing Degree Days 16 (Base 50)    
Moisture  
Dew Point 62 °F    
Average Humidity 84    
Maximum Humidity 96    
Minimum Humidity 66    
Precipitation  
Precipitation 0.00 in - - ()
Sea Level Pressure  
Sea Level Pressure 30.10 in    
Wind  
Wind Speed 5 mph (East)    
Max Wind Speed 8 mph    
Max Gust Speed -    
Visibility 8 miles    
Events Fog    
Averages and records for this station are not official NWS values.
T = Trace of Precipitation, MM = Missing Value Source: NWS Daily Summary

Daily Weather History Graph

Daily Weather History Graph

Search for Another Location

Airport or City:

Trip Planner

Search our weather history database for the weather conditions in past years. The results will help you decide how hot, cold, wet, or windy it might be!

Date:

Astronomy

Nov. 16, 2013 Rise Set
Actual Time 6:13 AM CST 4:47 PM CST
Civil Twilight 5:47 AM CST 5:13 PM CST
Nautical Twilight 5:18 AM CST 5:42 PM CST
Astronomical Twilight 4:50 AM CST 6:11 PM CST
Moon 4:20 PM CST (11/16) 5:12 AM CST (11/16)
Length of Visible Light 11h 25m
Length of Day
10h 34m
Waxing Gibbous, 99% of the Moon is Illuminated
Nov 16
Waxing Gibbous
Nov 17
Full
Nov 25
Last Quarter
Dec 2
New
Dec 9
First Quarter

Hourly Weather History & Observations

Time (CST) Temp. Dew Point Humidity Pressure Visibility Wind Dir Wind Speed Gust Speed Precip Events Conditions
12:53 AM 61.0 °F 59.0 °F 93% 30.11 in 10.0 mi ENE 5.8 mph - N/A   Overcast
1:03 AM 61.0 °F 59.0 °F 93% 30.11 in 9.0 mi East 6.9 mph - N/A   Overcast
1:53 AM 61.0 °F 59.0 °F 93% 30.11 in 7.0 mi East 5.8 mph - N/A   Overcast
2:53 AM 61.0 °F 59.0 °F 93% 30.10 in 8.0 mi East 8.1 mph - N/A   Overcast
3:53 AM 61.0 °F 59.0 °F 93% 30.10 in 6.0 mi East 4.6 mph - N/A   Overcast
4:53 AM 61.0 °F 59.0 °F 93% 30.10 in 7.0 mi East 4.6 mph - N/A   Overcast
5:53 AM 61.0 °F 59.0 °F 93% 30.11 in 7.0 mi East 6.9 mph - N/A   Overcast
6:36 AM 61.0 °F 59.0 °F 93% 30.11 in 2.0 mi East 4.6 mph - N/A   Overcast
6:44 AM 60.1 °F 59.0 °F 96% 30.11 in 1.2 mi ENE 6.9 mph - N/A   Overcast
6:53 AM 60.1 °F 59.0 °F 96% 30.12 in 0.8 mi East 3.5 mph - N/A   Overcast
7:02 AM 60.1 °F 59.0 °F 96% 30.12 in 0.5 mi East 5.8 mph - N/A Fog Fog
7:33 AM 60.1 °F 59.0 °F 96% 30.13 in 1.0 mi ENE 4.6 mph - N/A   Overcast
7:44 AM 60.1 °F 59.0 °F 96% 30.14 in 0.8 mi East 3.5 mph - N/A   Overcast
7:53 AM 61.0 °F 59.0 °F 93% 30.14 in 1.2 mi East 5.8 mph - N/A   Overcast
8:08 AM 61.0 °F 59.0 °F 93% 30.14 in 3.0 mi Variable 5.8 mph - N/A   Overcast
8:22 AM 62.1 °F 59.0 °F 90% 30.14 in 7.0 mi East 5.8 mph - N/A   Overcast
8:53 AM 64.0 °F 60.1 °F 87% 30.15 in 10.0 mi East 8.1 mph - N/A   Overcast
9:04 AM 66.0 °F 60.1 °F 81% 30.15 in 10.0 mi Variable 5.8 mph - N/A   Overcast
9:43 AM 68.0 °F 61.0 °F 78% 30.15 in 10.0 mi Variable 5.8 mph - N/A   Overcast
9:53 AM 70.0 °F 61.0 °F 73% 30.14 in 10.0 mi East 5.8 mph - N/A   Mostly Cloudy
10:53 AM 73.0 °F 62.1 °F 68% 30.12 in 10.0 mi East 4.6 mph - N/A   Overcast
11:34 AM 73.9 °F 62.1 °F 66% 30.11 in 10.0 mi ESE 5.8 mph - N/A   Overcast
11:53 AM 73.0 °F 63.0 °F 71% 30.10 in 10.0 mi ENE 3.5 mph - N/A   Overcast
12:53 PM 73.0 °F 63.0 °F 71% 30.07 in 10.0 mi East 3.5 mph - N/A   Overcast
1:53 PM 73.0 °F 63.0 °F 71% 30.06 in 10.0 mi Calm Calm - 0.00 in   Overcast
2:53 PM 73.9 °F 64.0 °F 71% 30.05 in 10.0 mi South 5.8 mph - 0.00 in   Overcast
3:34 PM 73.9 °F 64.0 °F 71% 30.05 in 10.0 mi Variable 3.5 mph - N/A   Overcast
3:53 PM 73.0 °F 64.0 °F 73% 30.04 in 10.0 mi Calm Calm - N/A   Overcast
4:53 PM 70.0 °F 64.0 °F 81% 30.05 in 10.0 mi Calm Calm - N/A   Overcast
5:00 PM 70.0 °F 64.0 °F 81% 30.06 in 10.0 mi Calm Calm - N/A   Overcast
5:46 PM 69.1 °F 64.0 °F 84% 30.07 in 10.0 mi Calm Calm - N/A   Overcast
5:53 PM 69.1 °F 64.0 °F 84% 30.07 in 10.0 mi Calm Calm - N/A   Overcast
6:46 PM 68.0 °F 64.0 °F 87% 30.08 in 10.0 mi Calm Calm - N/A   Overcast
6:53 PM 68.0 °F 64.0 °F 87% 30.08 in 10.0 mi Calm Calm - N/A   Overcast
7:53 PM 68.0 °F 64.0 °F 87% 30.09 in 10.0 mi Calm Calm - N/A   Overcast
8:39 PM 69.1 °F 64.0 °F 84% 30.09 in 10.0 mi ESE 5.8 mph - N/A   Overcast
8:51 PM 69.8 °F 62.6 °F 78% 30.09 in 10.0 mi SE 5.8 mph - N/A   Overcast
8:53 PM 69.1 °F 63.0 °F 81% 30.09 in 10.0 mi SE 5.8 mph - N/A   Overcast
9:24 PM 70.0 °F 63.0 °F 78% 30.09 in 10.0 mi ESE 6.9 mph - N/A   Overcast
9:53 PM 70.0 °F 64.0 °F 81% 30.08 in 10.0 mi SE 6.9 mph - N/A   Overcast
10:53 PM 70.0 °F 64.0 °F 81% 30.07 in 10.0 mi ESE 5.8 mph - N/A   Overcast
11:11 PM 70.0 °F 64.0 °F 81% 30.08 in 10.0 mi East 5.8 mph - N/A   Overcast
11:53 PM 69.1 °F 64.0 °F 84% 30.05 in 10.0 mi ESE 6.9 mph - N/A   Overcast